World > North America > United States > Oregon

Lebanon, Oregon Regional Weather

Lat: 44.53N, Lon: 122.9W
Wx Zone: ORZ008
Feedback

Lebanon, OR Regional Weather

Expires:201908201700;;937100
ASUS46 KPQR 201610
RWROR 

OREGON REGIONAL WEATHER ROUNDUP
NATIONAL WEATHER SERVICE PORTLAND OR
900 AM PDT TUE AUG 20 2019

NOTE: "FAIR" INDICATES FEW OR NO CLOUDS BELOW 12,000 FEET WITH
NO SIGNIFICANT WEATHER AND/OR OBSTRUCTIONS TO VISIBILITY.


ORZ001>013-201700-
NORTHWEST OREGON

  
CITY           SKY/WX    TMP DP  RH WIND       PRES   REMARKS
ASTORIA        MOSUNNY   62  56  80 CALM      29.95S                  
TILLAMOOK      MOSUNNY   63  55  77 CALM      29.99S                  
NEWPORT        PTSUNNY   63  57  82 S5        30.02S                  
FLORENCE       CLOUDY    61  55  82 SE3       30.00S                  
PORTLAND       PTSUNNY   65  57  75 E3        29.96S                  
VANCOUVER WA   SUNNY     65  57  75 CALM      29.96S                  
SCAPPOOSE      MOSUNNY   63  56  78 CALM      29.95S                  
HILLSBORO      MOSUNNY   63  55  75 CALM      29.96S                  
AURORA         SUNNY     64  55  72 CALM      29.98R                  
MCMINNVILLE    MOSUNNY   63  56  78 CALM      29.97R                  
SALEM          MOSUNNY   65  55  70 CALM      29.96S                  
CORVALLIS      MOSUNNY   67  57  70 NW5       29.98S                  
EUGENE         PTSUNNY   66  56  70 S8        29.98S                  
CRESWELL       SUNNY     66  57  72 S6        29.98S                  
$$


SKY/WX - Weather  TMP - Temperature  DP - Dew Point  RH - Relative Humidity
WIND - Wind Direction/Speed PRES - Barometric Pressure VSB - Visibility
WCI - Wind Chill Index E13G22 Wind - East Wind 13 mph/Gusts of 22 mph